Regional Weather Roundup
Issued by NWS

Home | Current Version | Previous Version | Graphics & Text | Print | Product List | Glossary On
Versions: 1 2 3 4 5 6 7 8 9 10 11 12 13 14 15 16 17 18 19 20 21 22 23 24 25 26 27 28 29 30 31 32 33 34 35 36 37 38 39 40 41 42 43 44 45 46 47 48 49 50
000
ASUS45 KBOI 171410
RWRID
WEATHER ROUNDUP FOR IDAHO
NATIONAL WEATHER SERVICE BOISE ID
800 AM MDT WED SEP 17 2014

NOTE: "FAIR" INDICATES FEW OR NO CLOUDS BELOW 12000 FEET
WITH NO SIGNIFICANT WEATHER AND/OR OBSTRUCTIONS TO VISIBILITY

IDZ012-014-171500-
SOUTHWEST IDAHO


CITY           SKY/WX    TMP DP  RH WIND       PRES   REMARKS
BOISE          CLOUDY    70  42  36 E6        29.85R
CALDWELL       CLOUDY    59  45  58 CALM      29.86R
MOUNTAIN HOME  CLOUDY    64  42  44 E3        29.87R
$$

IDZ016-017-171500-
SOUTHCENTRAL IDAHO


CITY           SKY/WX    TMP DP  RH WIND       PRES   REMARKS
BURLEY         MOCLDY    56  46  69 CALM      29.95R
JEROME         MOCLDY    61  44  53 NE12      29.94R
TWIN FALLS     MOCLDY    60  43  53 CALM      29.94R
$$

IDZ019>023-171500-
SOUTHEAST IDAHO


CITY           SKY/WX    TMP DP  RH WIND       PRES   REMARKS
IDAHO FALLS    CLOUDY    52  44  74 NE6       30.03R
POCATELLO      PTCLDY    56  51  84 NW8       29.99R
REXBURG        MOCLDY    51  43  74 N5        30.05R
$$

IDZ006-010-011-018-031-032-171500-
CENTRAL IDAHO MOUNTAINS


CITY           SKY/WX    TMP DP  RH WIND       PRES   REMARKS
MCCALL         CLOUDY    50  42  74 CALM      29.98R
HAILEY         PTCLDY    57  37  47 NW10G20   30.05S
STANLEY          N/A     38  31  76 CALM      30.15R
SALMON         PTCLDY    45  41  87 CALM      30.02R
CHALLIS        PTCLDY    50  44  80 CALM      30.06R
$$

IDZ002-004-006-007-026-171500-
NORTHERN IDAHO


CITY           SKY/WX    TMP DP  RH WIND       PRES   REMARKS
LEWISTON       CLOUDY    59  37  44 CALM      29.82S
LOWELL           N/A     53  51  93 NW3       29.89S
COEUR D`ALENE  MOCLDY    48  41  76 NE6       29.85S
MULLAN PASS    PTCLDY    59  38  45 S5        30.01S
$$



USA.gov is the U.S. government's official web portal to all federal, state and local government web resources and services.